sat.trackr.live / text

‹ back to catalog

STARLINK-11316 [DTC]

NORAD 61875 · 2024-204B

PAYLOAD ACTIVE UNKNOWN

§ Identity

Operator
Country
US
Launch date
2024-11-09
Launch site
AFWTR
Launch vehicle
Mass (kg)
RCS (m²)

Purposes: comms

External: N2YO · Heavens-Above · Gunter

§ Orbital elements

Epoch: 2026-05-24T19:15:44.538048Z

Period
91.74 min
Inclination
53.1585°
Eccentricity
0.0000846
Mean motion
15.69707655 rev/d
Perigee alt
359.2 km
Apogee alt
360.3 km
Semi-major
6,737.9 km
B*
1.0613e-5
RAAN
340.7176°
Arg perigee
87.8258°
Mean anomaly
272.2857°
Rev number
8,887

§ Raw data

STARLINK-11316 [DTC]1 61875U 24204B   26144.80259882  .00000698  00000+0  10613-4 0  99952 61875  53.1585 340.7176 0000846  87.8258 272.2857 15.69707655 88875

JSON: /api/v1/satellites/61875 · /tle

For live sub-satellite position, see the globe view (requires WebGL).

§ Visibility from observer

Set your observer location to see the next 7 days of passes ≥ 10°. The values pass through the URL so the page stays shareable.

No JS? Fill the form by hand. The geolocation button needs JavaScript.